Location: Doschendorf
(50.0069°N, 11.0602°E)
Time: 16:07:19
(UTC+00:00)

CZ-4 R/B - Pass Details

Date: 17 November 2019
Orbit: 581 x 588 km, 97.8° (Epoch: 08 December)

Event Time Altitude Azimuth Distance (km) Brightness Sun altitude
Rises 16:58:37 0° 152° (SSE) 2,800 7.8 -14.1°
Reaches altitude 10° 17:00:47 10° 148° (SSE) 1,905 6.9 -14.5°
Maximum altitude 17:04:49 54° 71° (ENE) 716 4.5 -15.1°
Drops below altitude 10° 17:08:54 10° 354° (N) 1,925 7.0 -15.8°
Sets 17:11:06 0° 350° (N) 2,831 7.9 -16.1°
